Morris, MN

5:21 PM CST on January 20, 2018 (GMT -0600)
Morris Municipal

Weather History for KMOX - October, 2012

Change the Weather History Date:

Sunday, October 21, 2012

  Actual Average Record
Temperature  
Mean Temperature 50 °F -  
Max Temperature 55 °F 52 °F 69 °F (2017)
Min Temperature 44 °F 33 °F 23 °F (2002)
Degree Days  
Heating Degree Days 16    
Moisture  
Dew Point 45 °F    
Average Humidity 88    
Maximum Humidity 100    
Minimum Humidity 77    
Precipitation  
Precipitation 0.00 in - - ()
Sea Level Pressure  
Sea Level Pressure 29.80 in    
Wind  
Wind Speed 12 mph (NNE)    
Max Wind Speed 17 mph    
Max Gust Speed 20 mph    
Visibility 9 miles    
Events      
Averages and records for this station are not official NWS values.
T = Trace of Precipitation, MM = Missing Value Source: NWS Daily Summary

Daily Weather History Graph

Daily Weather History Graph

Search for Another Location

Airport or City:

Trip Planner

Search our weather history database for the weather conditions in past years. The results will help you decide how hot, cold, wet, or windy it might be!

Date:

Astronomy

Oct. 21, 2012 Rise Set
Actual Time 7:49 AM CDT 6:27 PM CDT
Civil Twilight 7:18 AM CDT 6:57 PM CDT
Nautical Twilight 6:44 AM CDT 7:31 PM CDT
Astronomical Twilight 6:09 AM CDT 8:06 PM CDT
Moon 2:16 PM CDT (10/21) No Moon Set
Length of Visible Light 11h 38m
Length of Day
10h 38m
Waxing Crescent, 45% of the Moon is Illuminated
Oct 21
Waxing Crescent
Oct 21
First Quarter
Oct 29
Full
Nov 6
Last Quarter
Nov 13
New

Hourly Weather History & Observations

Time (CDT) Temp. Windchill Dew Point Humidity Pressure Visibility Wind Dir Wind Speed Gust Speed Precip Events Conditions
12:30 AM 44.6 °F 38.8 °F 42.8 °F 93% 29.71 in 10.0 mi SE 11.5 mph - N/A   Clear
12:50 AM 44.6 °F 38.4 °F 42.8 °F 93% 29.71 in 10.0 mi SE 12.7 mph 17.3 mph N/A   Mostly Cloudy
1:10 AM 46.4 °F 40.7 °F 42.8 °F 87% 29.72 in 10.0 mi SE 12.7 mph - N/A   Scattered Clouds
1:30 AM 44.6 °F 39.7 °F 42.8 °F 93% 29.73 in 10.0 mi ESE 9.2 mph - N/A   Clear
2:10 AM 44.6 °F 37.8 °F 42.8 °F 93% 29.73 in 10.0 mi SE 15.0 mph - N/A   Clear
2:30 AM 44.6 °F 38.4 °F 42.8 °F 93% 29.72 in 10.0 mi ESE 12.7 mph - N/A   Clear
2:50 AM 44.6 °F 38.1 °F 42.8 °F 93% 29.72 in 10.0 mi ESE 13.8 mph - N/A   Clear
3:10 AM 44.6 °F 37.8 °F 42.8 °F 93% 29.71 in 10.0 mi ESE 15.0 mph - N/A   Clear
3:30 AM 44.6 °F 38.1 °F 42.8 °F 93% 29.70 in 7.0 mi ESE 13.8 mph - N/A   Clear
3:50 AM 44.6 °F 38.4 °F 42.8 °F 93% 29.70 in 7.0 mi ESE 12.7 mph - N/A   Clear
4:10 AM 44.6 °F 37.8 °F 42.8 °F 93% 29.70 in 7.0 mi ESE 15.0 mph 19.6 mph N/A   Clear
4:30 AM 44.6 °F 38.1 °F 42.8 °F 93% 29.70 in 7.0 mi ESE 13.8 mph - N/A   Clear
5:10 AM 44.6 °F 37.2 °F 42.8 °F 93% 29.69 in 7.0 mi ESE 17.3 mph - N/A   Clear
6:10 AM 44.6 °F 37.4 °F 42.8 °F 93% 29.68 in 7.0 mi ESE 16.1 mph - N/A   Clear
6:30 AM 44.6 °F 38.1 °F 42.8 °F 93% 29.69 in 10.0 mi ESE 13.8 mph - N/A   Clear
6:50 AM 44.6 °F 38.1 °F 42.8 °F 93% 29.70 in 10.0 mi ESE 13.8 mph - N/A   Clear
7:10 AM 44.6 °F 38.8 °F 42.8 °F 93% 29.70 in 10.0 mi ESE 11.5 mph - N/A   Clear
7:30 AM 44.6 °F 38.8 °F 42.8 °F 93% 29.70 in 10.0 mi East 11.5 mph - N/A   Clear
8:30 AM 44.6 °F 40.2 °F 42.8 °F 93% 29.72 in 7.0 mi East 8.1 mph - N/A   Clear
8:49 AM 44.6 °F 38.8 °F 42.8 °F 93% 29.71 in 7.0 mi East 11.5 mph - N/A   Clear
9:30 AM 46.4 °F 40.7 °F 42.8 °F 87% 29.72 in 7.0 mi ESE 12.7 mph - N/A   Clear
10:10 AM 50.0 °F - 44.6 °F 82% 29.72 in 10.0 mi SE 12.7 mph 18.4 mph N/A   Clear
10:30 AM 51.8 °F - 46.4 °F 82% 29.72 in 10.0 mi SE 12.7 mph - N/A   Clear
10:50 AM 51.8 °F - 46.4 °F 82% 29.72 in 10.0 mi SE 11.5 mph - N/A   Clear
11:10 AM 51.8 °F - 46.4 °F 82% 29.73 in 10.0 mi SE 11.5 mph - N/A   Clear
11:30 AM 53.6 °F - 46.4 °F 77% 29.74 in 10.0 mi South 8.1 mph - N/A   Clear
12:10 PM 53.6 °F - 46.4 °F 77% 29.75 in 10.0 mi SSW 3.5 mph - N/A   Clear
12:30 PM 53.6 °F - 46.4 °F 77% 29.76 in 10.0 mi WSW 4.6 mph - N/A   Clear
12:50 PM 53.6 °F - 46.4 °F 77% 29.77 in 10.0 mi Calm Calm - N/A   Scattered Clouds
1:10 PM 53.6 °F - 46.4 °F 77% 29.77 in 10.0 mi WNW 3.5 mph - N/A   Mostly Cloudy
1:30 PM 53.6 °F - 46.4 °F 77% 29.78 in 10.0 mi NW 9.2 mph - N/A   Overcast
1:50 PM 53.6 °F - 46.4 °F 77% 29.78 in 10.0 mi NNW 11.5 mph - N/A   Overcast
2:10 PM 53.6 °F - 46.4 °F 77% 29.79 in 10.0 mi NNW 11.5 mph - N/A   Overcast
2:30 PM 51.8 °F - 46.4 °F 82% 29.80 in 10.0 mi NNW 11.5 mph 16.1 mph N/A   Overcast
2:50 PM 51.8 °F - 46.4 °F 82% 29.81 in 10.0 mi NNW 10.4 mph - N/A   Overcast
3:10 PM 53.6 °F - 46.4 °F 77% 29.82 in 10.0 mi NNW 12.7 mph - N/A   Overcast
3:30 PM 53.6 °F - 46.4 °F 77% 29.83 in 10.0 mi NNW 12.7 mph - N/A   Overcast
3:50 PM 53.6 °F - 48.2 °F 82% 29.83 in 10.0 mi NNW 12.7 mph - N/A   Overcast
4:10 PM 55.4 °F - 48.2 °F 77% 29.84 in 10.0 mi NNW 16.1 mph - N/A   Scattered Clouds
4:30 PM 53.6 °F - 48.2 °F 82% 29.84 in 10.0 mi NNW 15.0 mph 19.6 mph N/A   Scattered Clouds
4:50 PM 53.6 °F - 46.4 °F 77% 29.85 in 10.0 mi NNW 12.7 mph - N/A   Scattered Clouds
5:09 PM 53.6 °F - 48.2 °F 82% 29.85 in 10.0 mi North 9.2 mph - N/A   Scattered Clouds
5:30 PM 53.6 °F - 48.2 °F 82% 29.85 in 10.0 mi North 13.8 mph - N/A   Clear
5:50 PM 53.6 °F - 48.2 °F 82% 29.85 in 10.0 mi North 10.4 mph - N/A   Clear
6:10 PM 53.6 °F - 48.2 °F 82% 29.86 in 10.0 mi North 9.2 mph - N/A   Clear
6:30 PM 51.8 °F - 46.4 °F 82% 29.88 in 10.0 mi NNW 6.9 mph - N/A   Clear
6:50 PM 51.8 °F - 46.4 °F 82% 29.89 in 10.0 mi NNW 6.9 mph - N/A   Clear
7:10 PM 48.2 °F - 46.4 °F 93% 29.90 in 10.0 mi NNW 5.8 mph - N/A   Clear
7:30 PM 48.2 °F - 46.4 °F 93% 29.90 in 10.0 mi NNW 8.1 mph - N/A   Clear
7:50 PM 48.2 °F - 46.4 °F 93% 29.90 in 10.0 mi NNW 6.9 mph - N/A   Clear
8:10 PM 48.2 °F - 46.4 °F 93% 29.91 in 5.0 mi NNW 8.1 mph - N/A   Clear
8:30 PM 46.4 °F 42.9 °F 46.4 °F 100% 29.92 in 5.0 mi NNW 6.9 mph - N/A   Clear
8:50 PM 46.4 °F 41.9 °F 46.4 °F 100% 29.92 in 4.0 mi NNW 9.2 mph - N/A   Clear
9:10 PM 46.4 °F 41.5 °F 46.4 °F 100% 29.93 in 7.0 mi NNW 10.4 mph - N/A   Clear
9:30 PM 46.4 °F 41.9 °F 44.6 °F 93% 29.93 in 10.0 mi NW 9.2 mph - N/A   Clear
10:10 PM 46.4 °F 41.5 °F 44.6 °F 93% 29.94 in 10.0 mi NNW 10.4 mph - N/A   Clear
10:30 PM 46.4 °F 41.5 °F 44.6 °F 93% 29.94 in 10.0 mi NNW 10.4 mph - N/A   Clear
10:50 PM 44.6 °F 38.8 °F 44.6 °F 100% 29.95 in 10.0 mi NW 11.5 mph - N/A   Clear
11:30 PM 44.6 °F 39.2 °F 44.6 °F 100% 29.96 in 10.0 mi NNW 10.4 mph - N/A   Clear
11:50 PM 44.6 °F 38.4 °F 42.8 °F 93% 29.96 in 10.0 mi NNW 12.7 mph - N/A   Clear